ABS-7

Last updated on Sept. 30, 2020, 5:50 a.m. UTC

1 25894U 99046A   20273.80694330 -.00000379  00000-0  00000-0 0  9993
2 25894   1.2181  93.8978 0003392 100.2521 221.4950  1.00272129 76207
UTC
Height (km)
Latitude
Longitude
Inclination
Orbital Period
UTC large
Height (km)
Speed (km/s)
/
Latitude / Longitude
Inclination (degrees)
Orbital Period (minutes)
Azimuth
Elevation
Range (km)
Doppler Factor
iOS Compass Heading
iOS Angle

Next 30 passes for location: Hong Kong

Rise time Rise Azimuth (degrees) Set time Set Azimuth (degrees) Duration Max altitude (degrees)

No matching passes for this satellites